| time (UTC) | temp F | wind direction | speed knots | gust knots | rain 1hr in | rain 24hr in | rain mn in | humidity % | barometer mb |
| 20260506013048 | 46 | 319 | 6.1 | 15.6 | 0.00 | 0.00 | 0.00 | 43 | 1012.9 |
| 20260506011546 | 47 | 325 | 8.7 | 15.6 | 0.00 | 0.00 | 0.00 | 42 | 1012.7 |
| 20260506010055 | 48 | 323 | 8.7 | 15.6 | 0.00 | 0.00 | 0.00 | 42 | 1012.6 |
| 20260506004549 | 49 | 327 | 6.1 | 11.3 | 0.00 | 0.00 | 0.00 | 40 | 1012.5 |
| 20260506003043 | 49 | 5 | 7.0 | 13.9 | 0.00 | 0.00 | 0.00 | 40 | 1012.3 |
| 20260506001546 | 49 | 320 | 7.8 | 16.5 | 0.00 | 0.00 | 0.00 | 39 | 1012.2 |
| 20260506000042 | 49 | 315 | 4.3 | 15.6 | 0.00 | 0.00 | 0.00 | 39 | 1012.1 |
| 20260505234601 | 49 | 340 | 2.6 | 14.8 | 0.00 | 0.00 | 0.00 | 39 | 1011.9 |
| 20260505233043 | 51 | 259 | 6.1 | 13.9 | 0.00 | 0.00 | 0.00 | 37 | 1011.8 |
| 20260505231541 | 50 | 298 | 5.2 | 13.9 | 0.00 | 0.00 | 0.00 | 38 | 1011.9 |
| 20260505230039 | 52 | 257 | 4.3 | 14.8 | 0.00 | 0.00 | 0.00 | 37 | 1011.8 |
| 20260505224539 | 50 | 265 | 7.0 | 16.5 | 0.00 | 0.00 | 0.00 | 39 | 1011.9 |
| 20260505223040 | 50 | 338 | 4.3 | 12.2 | 0.00 | 0.00 | 0.00 | 40 | 1011.9 |
| 20260505221539 | 50 | 281 | 3.5 | 11.3 | 0.00 | 0.00 | 0.00 | 40 | 1011.8 |
| 20260505220041 | 50 | 298 | 7.0 | 17.4 | 0.00 | 0.00 | 0.00 | 40 | 1011.9 |
| 20260505214559 | 49 | 351 | 6.1 | 14.8 | 0.00 | 0.00 | 0.00 | 39 | 1011.9 |
| 20260505213037 | 49 | 276 | 8.7 | 18.2 | 0.00 | 0.00 | 0.00 | 38 | 1012.0 |
| 20260505211535 | 49 | 346 | 5.2 | 14.8 | 0.00 | 0.00 | 0.00 | 39 | 1012.0 |
| 20260505210034 | 50 | 278 | 7.0 | 14.8 | 0.00 | 0.00 | 0.00 | 39 | 1012.1 |
| 20260505204537 | 50 | 280 | 8.7 | 14.8 | 0.00 | 0.00 | 0.00 | 38 | 1012.1 |
| 20260505203038 | 49 | 226 | 7.0 | 14.8 | 0.00 | 0.00 | 0.00 | 38 | 1012.0 |
| 20260505201537 | 49 | 279 | 5.2 | 13.9 | 0.00 | 0.00 | 0.00 | 39 | 1012.2 |
| 20260505200032 | 49 | 252 | 5.2 | 11.3 | 0.00 | 0.00 | 0.00 | 39 | 1012.1 |
| 20260505194540 | 49 | 313 | 8.7 | 16.5 | 0.00 | 0.00 | 0.00 | 39 | 1012.2 |
| 20260505193034 | 49 | 238 | 7.0 | 13.9 | 0.00 | 0.00 | 0.00 | 39 | 1012.1 |
| 20260505191531 | 49 | 313 | 7.0 | 15.6 | 0.00 | 0.00 | 0.00 | 39 | 1012.1 |
| 20260505190030 | 49 | 315 | 8.7 | 16.5 | 0.00 | 0.00 | 0.00 | 39 | 1012.1 |
| 20260505184529 | 49 | 265 | 3.5 | 16.5 | 0.00 | 0.00 | 0.00 | 40 | 1012.2 |
| 20260505183030 | 49 | 295 | 8.7 | 18.2 | 0.00 | 0.00 | 0.00 | 39 | 1012.2 |
| 20260505181528 | 49 | 283 | 8.7 | 17.4 | 0.00 | 0.00 | 0.00 | 39 | 1012.3 |
| 20260505180051 | 48 | 290 | 7.0 | 13.0 | 0.00 | 0.00 | 0.00 | 39 | 1012.2 |
| 20260505174547 | 49 | 294 | 5.2 | 14.8 | 0.00 | 0.00 | 0.00 | 39 | 1012.2 |
| 20260505173032 | 49 | 290 | 7.8 | 15.6 | 0.00 | 0.00 | 0.00 | 37 | 1012.2 |
| 20260505171525 | 48 | 246 | 6.1 | 13.0 | 0.00 | 0.00 | 0.00 | 40 | 1012.4 |
| 20260505170023 | 47 | 279 | 6.1 | 10.4 | 0.00 | 0.00 | 0.00 | 39 | 1012.3 |
| 20260505164523 | 48 | 249 | 4.3 | 9.6 | 0.00 | 0.00 | 0.00 | 39 | 1012.3 |
| 20260505163024 | 48 | 284 | 2.6 | 10.4 | 0.00 | 0.00 | 0.00 | 39 | 1012.3 |
| 20260505161519 | 47 | 294 | 7.8 | 13.9 | 0.00 | 0.00 | 0.00 | 39 | 1012.4 |
| 20260505153012 | 46 | 316 | 5.2 | 13.9 | 0.00 | 0.00 | 0.00 | 42 | 1012.3 |
| 20260505151513 | 46 | 285 | 5.2 | 14.8 | 0.00 | 0.00 | 0.00 | 44 | 1012.1 |
| 20260505124535 | 40 | 355 | 3.5 | 9.6 | 0.00 | 0.00 | 0.00 | 49 | 1010.9 |
| 20260505123025 | 40 | 340 | 4.3 | 9.6 | 0.00 | 0.00 | 0.00 | 51 | 1010.6 |
| 20260505121522 | 40 | 304 | 4.3 | 10.4 | 0.00 | 0.00 | 0.00 | 55 | 1010.4 |
| 20260505120018 | 39 | 323 | 3.5 | 10.4 | 0.00 | 0.00 | 0.00 | 56 | 1010.2 |
| 20260505114514 | 39 | 313 | 4.3 | 11.3 | 0.00 | 0.00 | 0.00 | 59 | 1010.0 |
| 20260505113009 | 39 | 338 | 5.2 | 8.7 | 0.00 | 0.00 | 0.00 | 61 | 1009.6 |
| 20260505111506 | 39 | 304 | 0.9 | 8.7 | 0.00 | 0.00 | 0.00 | 63 | 1009.5 |
| 20260505101558 | 40 | 325 | 2.6 | 7.8 | 0.00 | 0.00 | 0.00 | 63 | 1009.1 |
| 20260505100056 | 40 | 314 | 3.5 | 7.8 | 0.00 | 0.00 | 0.00 | 63 | 1009.0 |
| 20260505094554 | 40 | 319 | 3.5 | 8.7 | 0.00 | 0.00 | 0.00 | 62 | 1008.9 |
| 20260505093052 | 40 | 301 | 3.5 | 7.8 | 0.00 | 0.00 | 0.00 | 62 | 1008.7 |
| 20260505091607 | 41 | 298 | 3.5 | 8.7 | 0.00 | 0.00 | 0.00 | 60 | 1008.7 |
| 20260505090047 | 41 | 290 | 2.6 | 10.4 | 0.00 | 0.00 | 0.00 | 59 | 1008.5 |
| 20260505084544 | 41 | 322 | 4.3 | 11.3 | 0.00 | 0.00 | 0.00 | 57 | 1008.3 |
| 20260505083041 | 42 | 325 | 5.2 | 12.2 | 0.00 | 0.00 | 0.00 | 56 | 1008.1 |
| 20260505081540 | 42 | 292 | 5.2 | 10.4 | 0.00 | 0.00 | 0.00 | 54 | 1007.9 |
| 20260505080038 | 42 | 300 | 5.2 | 13.0 | 0.00 | 0.00 | 0.00 | 53 | 1007.9 |
| 20260505074536 | 42 | 355 | 6.1 | 12.2 | 0.00 | 0.00 | 0.00 | 53 | 1007.7 |
| 20260505073034 | 42 | 298 | 4.3 | 10.4 | 0.00 | 0.00 | 0.00 | 54 | 1007.7 |
| 20260505071529 | 43 | 321 | 4.3 | 11.3 | 0.00 | 0.00 | 0.00 | 54 | 1007.8 |
| 20260505070031 | 43 | 266 | 3.5 | 10.4 | 0.00 | 0.00 | 0.00 | 54 | 1007.7 |
| 20260505064525 | 44 | 292 | 4.3 | 9.6 | 0.00 | 0.00 | 0.00 | 54 | 1007.8 |
| 20260505063024 | 44 | 292 | 3.5 | 9.6 | 0.00 | 0.00 | 0.00 | 52 | 1007.6 |
| 20260505061526 | 44 | 313 | 3.5 | 10.4 | 0.00 | 0.00 | 0.00 | 51 | 1007.8 |
| 20260505060020 | 44 | 310 | 3.5 | 10.4 | 0.00 | 0.00 | 0.00 | 52 | 1007.8 |
| 20260505054517 | 44 | 289 | 2.6 | 7.0 | 0.00 | 0.00 | 0.00 | 55 | 1007.6 |
| 20260505053016 | 44 | 297 | 3.5 | 7.0 | 0.00 | 0.00 | 0.00 | 56 | 1007.6 |
| 20260505051530 | 44 | 286 | 2.6 | 7.0 | 0.00 | 0.00 | 0.00 | 56 | 1007.3 |
| 20260505041503 | 44 | 268 | 2.6 | 6.1 | 0.00 | 0.00 | 0.00 | 53 | 1007.2 |
| 20260505040002 | 44 | 260 | 1.7 | 7.0 | 0.00 | 0.00 | 0.00 | 52 | 1007.1 |
| 20260505034601 | 44 | 247 | 1.7 | 6.1 | 0.00 | 0.00 | 0.00 | 51 | 1007.0 |
| 20260505033059 | 45 | 251 | 0.9 | 3.5 | 0.00 | 0.00 | 0.00 | 51 | 1007.0 |
| 20260505031559 | 45 | 253 | 0.9 | 4.3 | 0.00 | 0.00 | 0.00 | 49 | 1007.0 |
| 20260505030055 | 45 | 243 | 1.7 | 6.1 | 0.00 | 0.00 | 0.00 | 48 | 1006.9 |
| 20260505024554 | 46 | 265 | 0.9 | 3.5 | 0.00 | 0.00 | 0.00 | 48 | 1006.8 |
| 20260505023050 | 47 | 263 | 0.9 | 6.1 | 0.00 | 0.00 | 0.00 | 46 | 1006.6 |
| 20260505021551 | 47 | 292 | 3.5 | 7.0 | 0.00 | 0.00 | 0.00 | 45 | 1006.3 |
| 20260505020044 | 47 | 293 | 3.5 | 8.7 | 0.00 | 0.00 | 0.00 | 45 | 1006.2 |
| 20260505014543 | 48 | 312 | 4.3 | 14.8 | 0.00 | 0.00 | 0.00 | 42 | 1006.0 |